Flag for French Southern Territories Weather past 2 weeks in Amsterdam Island, French Southern Territories

Now
53 °F

Cool.


Feels Like: 48 °F
Forecast: 51 / 57 °F
Wind: 15 mph from West

Location: Martin De Vivies Ile Amsterdam

Current Time: Aug 31, 2015 at 7:41:55 AM

Latest Report: Aug 31, 2015 at 7:00 AM


Visibility: N/A

Pressure: 30.17 "Hg

Humidity: 95%

Dew point: 51 °F

Location of Amsterdam IslandLocation

Historic Weather in Amsterdam Island — Graph

°F

Amsterdam Island temperature yesterday

Maximum temperature yesterday: 59 °F (at 10:00 AM)
Minimum temperature yesterday: 52 °F (at 8:00 PM)
Average temperature yesterday: 55 °F

Past Weeks' High & Low Weather Summary

 TemperatureHumidityPressure
High63 °F (Aug 22, 12:00 PM)97% (Aug 22, 12:00 AM)30.50 "Hg (Aug 22, 12:00 AM)
Low43 °F (Aug 17, 3:00 AM)56% (Aug 17, 4:00 PM)29.72 "Hg (Aug 27, 4:00 AM)
Average53 °F82%30.17 "Hg
* Reported Aug 16 5:00 AM — Aug 31 5:00 AM, Amsterdam Island, Weather by CustomWeather, © 2015

Note: Actual official high and low records may vary slightly from our data, if they occured in-between our weather recording intervals... More about our weather records

Advertising

Amsterdam Island weather history for previous 24 hours

 ConditionsComfort  
Time TempWeatherWind HumidityBarometerVisibility
5:00 AM
Mon, Aug 31
53 °FCool.10 mph95%30.15 "HgN/A
4:00 AM53 °FCool.12 mph94%30.14 "HgN/A
3:00 AM52 °FCool.12 mph94%30.14 "HgN/A
2:00 AM52 °FCool.9 mph94%30.15 "HgN/A
1:00 AM53 °FCool.12 mph94%30.16 "HgN/A
12:00 AM53 °FCool.10 mph93%30.16 "HgN/A
11:00 PM
Sun, Aug 30
53 °FCool.8 mph93%30.16 "HgN/A
10:00 PM52 °FCool.10 mph92%30.16 "HgN/A
9:00 PM53 °FCool.7 mph92%30.16 "HgN/A
8:00 PM52 °FCool.7 mph92%30.14 "HgN/A
7:00 PM53 °FCool.8 mph92%30.14 "HgN/A
6:00 PM53 °FCool.8 mph92%30.12 "HgN/A
5:00 PM53 °FCool.12 mph91%30.11 "HgN/A
4:00 PM54 °FCool.13 mph89%30.10 "HgN/A
3:00 PM57 °FCool.13 mph87%30.10 "HgN/A
2:00 PM58 °FCool.13 mph88%30.09 "HgN/A
1:00 PM58 °FCool.12 mph89%30.09 "HgN/A
12:00 PM58 °FCool.13 mph82%30.10 "HgN/A
11:00 AM58 °FCool.13 mph84%30.10 "HgN/A
10:00 AM59 °FCool.12 mph86%30.10 "HgN/A
9:00 AM57 °FCool.12 mph90%30.09 "HgN/A
8:00 AM54 °FCool.9 mph91%30.09 "HgN/A
7:00 AM53 °FCool.6 mph91%30.07 "HgN/A
Weather by CustomWeather, © 2015

See weather overviewHow to use our weather pages